Regional Weather Roundup
Issued by NWS

Home | Current Version | Previous Version | Text Only | Print | Product List | Glossary Off
Versions: 1 2 3 4 5 6 7 8 9 10 11 12 13 14 15 16 17 18 19 20 21 22 23 24 25 26 27 28 29 30 31 32 33 34 35 36 37 38 39 40 41 42 43 44 45 46 47 48 49 50

495
ASUS43 KMKX 212211
RWRWI

WISCONSIN REGIONAL WEATHER ROUNDUP
NATIONAL WEATHER SERVICE MILWAUKEE/SULLIVAN WI
500 PM CDT FRI JUL 21 2017

NOTE: "FAIR" INDICATES FEW OR NO CLOUDS BELOW 12,000 FEET WITH NO
SIGNIFICANT WEATHER AND/OR OBSTRUCTIONS TO VISIBILITY.

WIZ001-002-006>008-014>016-023>028-212300-
NORTHWEST WISCONSIN

CITY           SKY/WX    TMP DP  RH WIND       PRES   REMARKS
SUPERIOR ARPT  NOT AVBL
ASHLAND        SUNNY     76  67  73 N8        29.87F
HAYWARD        CLOUDY    80  67  64 S8        29.88S HX  82
SIREN          CLOUDY    78  67  69 S9        29.87S HX  80
CUMBERLAND     CLOUDY    73  68  83 S8        29.89S
RICE LAKE      CLOUDY    76  67  76 SE6       29.91S
CHETEK         CLOUDY    77  69  77 S7        29.90S
LADYSMITH      CLOUDY    77  68  72 S7        29.92R
EAU CLAIRE     CLOUDY    76  66  71 S14       29.87S
MENOMONIE      CLOUDY    78  67  70 S9        29.88R HX  80
NEW RICHMOND   PTSUNNY   79  67  66 S6        29.87S HX  81
OSCEOLA        CLOUDY    81  70  69 S7        29.88F HX  84
$$

WIZ003>005-009-010-017-018-212300-
NORTH CENTRAL WISCONSIN

CITY           SKY/WX    TMP DP  RH WIND       PRES   REMARKS
MANITOWISH WTR MOSUNNY   82  66  57 S6        29.91F HX  84
ARBOR VITAE    MOSUNNY   82  66  57 SE6       29.91F HX  84
WOODRUFF       MOSUNNY   82  66  57 SE6       29.91F HX  84
RHINELANDER    CLOUDY    81  64  56 S6        29.94F HX  82
EAGLE RIVER    PTSUNNY   82  60  47 S5        29.92F HX  82
LAND O LAKES   CLOUDY    82  58  44 S3        29.94F HX  81
PHILLIPS       CLOUDY    79  68  68 SE7       29.90S HX  82
TOMAHAWK         N/A     78  67  68 CALM      29.93S HX  80
MEDFORD        CLOUDY    75  66  73 S8        29.93S
MERRILL        MOSUNNY   78  68  72 S10       29.93F HX  80
$$

WIZ029-030-035-036-043>047-212300-
CENTRAL WISCONSIN

CITY           SKY/WX    TMP DP  RH WIND       PRES   REMARKS
WAUSAU         CLOUDY    78  69  73 S8        29.91F HX  80
MOSINEE        CLOUDY    77  72  83 S8        29.95S
MARSHFIELD     CLOUDY    75  66  73 S7        29.93R
STEVENS POINT  DRIZZLE   73  71  95 S9        29.93F
WAUPACA        LGT RAIN  76  72  86 CALM      29.93S
WAUTOMA        RAIN      73  72  96 SE7       29.92F
WISC RAPIDS    CLOUDY    74  72  93 S6        29.92F
CAMP DOUGLAS   CLOUDY    72  71  96 SE8       29.91S
$$

WIZ011>013-019>022-031-037>040-048>050-212300-
NORTHEAST WISCONSIN

CITY           SKY/WX    TMP DP  RH WIND       PRES   REMARKS
ANTIGO         CLOUDY    76  66  71 S7        29.95S
SHAWANO        CLOUDY    81  66  61 S3        29.92F HX  83
OCONTO         PTSUNNY   81  68  64 CALM      29.90F HX  83
STURGEON BAY     N/A     80  69  69 S3        29.91F HX  83
GREEN BAY      LGT RAIN  77  74  90 S3        29.92F
MANITOWOC      LGT RAIN  78  69  73 SE6       29.93F HX  80
APPLETON       CLOUDY    75  66  73 SW7       29.93F
CLINTONVILLE   CLOUDY    77  68  73 SW10      29.92S
OSHKOSH        LGT RAIN  76  69  79 S6        29.94S
$$

WIZ032>034-041-042-053>061-212300-
SOUTHWEST WISCONSIN

CITY           SKY/WX    TMP DP  RH WIND       PRES   REMARKS
LA CROSSE      CLOUDY    74  70  87 S9        29.89F
SPARTA         RAIN      69  67  94 S9        29.90F
VIROQUA        CLOUDY    70  70 100 SE7       29.93R
BOSCOBEL       CLOUDY    72  70  93 E6        29.91F
PRAIRIE DU CHI CLOUDY    71  69  96 CALM      29.89F
PLATTEVILLE    CLOUDY    73  73 100 N18       29.90F
$$

WIZ056-057-062-063-064-067-068-212300-
SOUTH CENTRAL WISCONSIN

CITY           SKY/WX    TMP DP  RH WIND       PRES   REMARKS
REEDSBURG      LGT RAIN  72  72 100 CALM      29.94R
BARABOO/DELLS  LGT RAIN  73  71  94 CALM      29.95F
LONE ROCK      HVY RAIN  72  70  93 CALM      29.94R VSB 1
MINERAL POINT  LGT RAIN  73  73 100 CALM      29.95F
MADISON        TSTM      74  73  97 N12       29.95R FOG
MIDDLETON      CLOUDY    75  75 100 E9        29.96R
WATERTOWN      LGT RAIN  74  74 100 NE5       29.94R
MONROE         CLOUDY    73  72  94 NE5       29.91F
JANESVILLE     PTSUNNY   79  75  89 SE12      29.90F HX  82
$$

WIZ051-052-058>065-066-070>072-212300-
SOUTHEAST WISCONSIN

CITY           SKY/WX    TMP DP  RH WIND       PRES   REMARKS
MILWAUKEE      LGT RAIN  77  73  87 E7        29.93F
WAUKESHA       PTSUNNY   73  72  94 NE6       29.94F
MILWAUKEE/TIMM LGT RAIN  77  70  78 E6        29.93F
RACINE         CLOUDY    74  73  97 SE13      29.94F
KENOSHA        CLOUDY    76  71  85 E10       29.94F
FOND DU LAC    LGT RAIN  75  66  73 S3        29.95S
SHEBOYGAN      CLOUDY    77  69  76 SE3       29.94F
WEST BEND      MOSUNNY   73  72  94 CALM      29.94F
JUNEAU         LGT RAIN  71  66  82 E5        29.95F
$$

LSZ147-162-212300-
LAKE SUPERIOR

STATION/POSITION TIME  TEMP    WIND        PRES    WAVE
                       AIR SEA DIR/SP/G            HT/PER
                 (UTC) (F)     (DEG/KT/KT) (MB)    (FT/S)
W MID LAKE BUOY  2150   54 49   70/  8/ 10 1012.4F   0
DEVILS ISLAND    2200   60      80/ 14/ 15 1011.6F
SAXON HARBOR     2130   70      40/  2/  6 1011.5S
$$

LMZ867-665-643>646-212300-
LAKE MICHIGAN

STATION/POSITION TIME  TEMP    WIND        PRES    WAVE
                       AIR SEA DIR/SP/G            HT/PER
                 (UTC) (F)     (DEG/KT/KT) (MB)    (FT/S)
CHAMBERS ISLAND  2140   80     180/  4/  9 1012.2F
S GREEN BAY BUOY 2200   78 76  240/  4/  6 1012.8
N MID LAKE BUOY  2150   69 68  160/  6/  6 1013.8F   1
NORTHPORT PIER   2140   74     150/  6/  7 1012.9F
KEWAUNEE LAKESHO 2148   72     180/  7/  8 1012.6F
SHEBOYGAN LAKESH 2200   71     170/ 13/ 13 1013.0F
PORT WASHINGTON  2130   74     170/  5/  7 1015.6S
ATWATER BUOY     2109   71 69  180/  4/  6 1015.1
MILWAUKEE LAKESH 2150   71     110/ 11/ 12   N/A
S MID LAKE BUOY  2150   74 74  360/  2/  4 1014.3F   0
KENOSHA   LAKESH 2200   73      90/ 10/ 13 1013.2
$$

TC  - TEMPERATURE IN CELSIUS
VSB - VISIBILITY IN STATUTE MILES
WCI - WIND CHILL INDEX
HX  - HEAT INDEX





USA.gov is the U.S. government's official web portal to all federal, state and local government web resources and services.